CW4206 Weather Reports


time (UTC)temp
F
wind
direction
speed
knots
gust
knots
rain 1hr
in
rain 24hr
in
rain mn
in
humidity
%
barometer
mb
20260502195032 59 76 0.0 1.7 0.00 0.00 0.00 50 1011.8
20260502194556 59 70 0.0 1.7 0.00 0.00 0.00 51 1011.8
20260502194031 59 60 0.0 1.7 0.00 0.00 0.00 49 1011.9
20260502193542 59 0 0.0 1.7 0.00 0.00 0.00 53 1011.9
20260502193042 59 0 0.0 1.7 0.00 0.00 0.00 52 1012.0
20260502192532 58 30 0.0 1.7 0.00 0.00 0.00 50 1012.0
20260502192031 58 0 0.0 1.7 0.00 0.00 0.00 51 1012.1
20260502191539 58 30 0.0 1.7 0.00 0.00 0.00 52 1012.2
20260502191033 58 0 0.0 1.7 0.00 0.00 0.00 51 1012.4
20260502190532 58 0 0.0 1.7 0.00 0.00 0.00 52 1012.4
20260502190048 58 0 0.0 1.7 0.00 0.00 0.00 51 1012.4
20260502185531 58 59 0.0 1.7 0.00 0.00 0.00 51 1012.7
20260502185030 58 77 0.0 1.7 0.00 0.00 0.00 53 1012.6
20260502184552 58 0 0.0 1.7 0.00 0.00 0.00 53 1012.7
20260502184032 58 67 0.0 1.7 0.00 0.00 0.00 51 1012.9
20260502183533 58 0 0.0 1.7 0.00 0.00 0.00 50 1012.9
20260502183053 58 165 0.0 2.6 0.00 0.00 0.00 50 1012.8
20260502182533 58 0 0.0 2.6 0.00 0.00 0.00 56 1012.9
20260502182031 57 0 0.0 1.7 0.00 0.00 0.00 56 1012.5
20260502181546 57 32 0.0 2.6 0.00 0.00 0.00 53 1012.5
20260502181032 57 0 0.9 2.6 0.00 0.00 0.00 52 1012.9
20260502180533 57 94 0.9 1.7 0.00 0.00 0.00 56 1012.7
20260502164033 54 0 0.0 0.9 0.00 0.00 0.00 70 1014.4
20260502163535 54 0 0.0 0.9 0.00 0.00 0.00 70 1014.5
20260502163051 54 120 0.0 0.9 0.00 0.00 0.00 70 1014.5
20260502162532 54 0 0.0 0.9 0.00 0.00 0.00 73 1014.5
20260502162036 54 0 0.0 0.9 0.00 0.00 0.00 73 1014.4
20260502161546 54 0 0.0 0.9 0.00 0.00 0.00 73 1014.3
20260502161032 54 0 0.0 1.7 0.00 0.00 0.00 73 1014.1
20260502160531 54 94 0.0 2.6 0.00 0.00 0.00 73 1014.1
20260502152031 54 350 0.0 1.7 0.00 0.00 0.00 75 1014.3
20260502151553 54 350 0.0 1.7 0.00 0.00 0.00 75 1014.2
20260502151031 54 350 0.9 1.7 0.00 0.00 0.00 76 1014.1
20260502150532 54 350 0.0 1.7 0.00 0.00 0.00 78 1014.1
20260502130533 54 0 0.0 1.7 0.00 0.00 0.00 83 1013.4
20260502123529 52 240 0.0 0.9 0.00 0.00 0.00 88 1013.0
20260502123043 51 0 0.0 0.9 0.00 0.00 0.00 89 1013.2
20260502122535 51 0 0.0 0.9 0.00 0.00 0.00 91 1013.3
20260502122033 51 0 0.0 0.0 0.00 0.00 0.00 92 1013.3
20260502121543 51 0 0.0 0.0 0.00 0.00 0.00 93 1013.4
20260502121034 50 0 0.0 0.0 0.00 0.00 0.00 93 1013.3
20260502120533 50 0 0.0 0.0 0.00 0.00 0.00 93 1013.2
20260502115535 50 0 0.0 0.0 0.00 0.00 0.00 95 1013.4
20260502115029 50 0 0.0 0.0 0.00 0.00 0.00 95 1013.4
20260502114603 50 0 0.0 0.0 0.00 0.00 0.00 95 1013.4
20260502114029 50 0 0.0 0.0 0.00 0.00 0.00 95 1013.5
20260502113533 49 0 0.0 0.0 0.00 0.00 0.00 94 1013.5
20260502113048 49 0 0.0 0.0 0.00 0.00 0.00 94 1013.5
20260502112531 49 0 0.0 0.0 0.00 0.00 0.00 95 1013.4
20260502112032 49 0 0.0 0.0 0.00 0.00 0.00 95 1013.4
20260502111540 49 0 0.0 0.0 0.00 0.00 0.00 95 1013.4
20260502111029 49 0 0.0 0.0 0.00 0.00 0.00 95 1013.4
20260502110532 49 0 0.0 0.0 0.00 0.00 0.00 95 1013.3
20260502110046 49 0 0.0 0.0 0.00 0.00 0.00 95 1013.4
20260502105532 49 0 0.0 0.0 0.00 0.00 0.00 95 1013.3
20260502105032 49 0 0.0 0.0 0.00 0.00 0.00 95 1013.4
20260502104549 49 0 0.0 0.0 0.00 0.00 0.00 95 1013.3
20260502104029 49 0 0.0 0.0 0.00 0.00 0.00 95 1013.2
20260502103533 49 0 0.0 0.0 0.00 0.00 0.00 95 1013.1
20260502103042 49 0 0.0 0.0 0.00 0.00 0.00 95 1013.2
20260502102531 49 0 0.0 0.0 0.00 0.00 0.00 95 1013.2
20260502102031 49 0 0.0 0.0 0.00 0.00 0.00 95 1013.0
20260502101612 49 0 0.0 0.0 0.00 0.00 0.00 95 1013.0
20260502101032 49 0 0.0 0.0 0.00 0.00 0.00 95 1012.9
20260502100529 49 0 0.0 0.0 0.00 0.00 0.00 95 1012.8
20260502091032 48 0 0.0 0.0 0.00 0.00 0.00 95 1012.3
20260502090531 48 0 0.0 0.0 0.00 0.00 0.00 95 1012.3
20260502090105 48 0 0.0 0.0 0.00 0.00 0.00 95 1012.2
20260502071033 49 0 0.0 0.0 0.00 0.00 0.00 94 1011.9
20260502070534 49 0 0.0 0.0 0.00 0.00 0.00 94 1011.8
20260502070057 49 0 0.0 0.0 0.00 0.00 0.00 94 1011.8
20260502065532 49 0 0.0 0.0 0.00 0.00 0.00 94 1011.9
20260502065036 49 0 0.0 0.0 0.00 0.00 0.00 94 1011.9
20260502064548 49 0 0.0 0.0 0.00 0.00 0.00 93 1012.1
20260502064029 49 0 0.0 0.0 0.00 0.00 0.00 93 1012.1
20260502063531 49 0 0.0 0.0 0.00 0.00 0.00 93 1012.1
20260502063056 49 0 0.0 0.0 0.00 0.00 0.00 93 1012.0
20260502062533 49 0 0.0 0.0 0.00 0.00 0.00 93 1012.0
20260502062033 49 0 0.0 0.0 0.00 0.00 0.00 93 1012.0
20260502061546 49 0 0.0 0.0 0.00 0.00 0.00 93 1012.1
20260502061031 49 0 0.0 0.0 0.00 0.00 0.00 93 1012.1
20260502060530 49 0 0.0 0.0 0.00 0.00 0.00 93 1012.2
20260502060044 49 0 0.0 0.0 0.00 0.00 0.00 92 1012.3
20260502055529 49 0 0.0 0.0 0.00 0.00 0.00 93 1012.4
20260502055029 49 0 0.0 0.0 0.00 0.00 0.00 93 1012.5
20260502054543 49 0 0.0 0.0 0.00 0.00 0.00 93 1012.4
20260502054028 49 0 0.0 0.0 0.00 0.00 0.00 93 1012.7
20260502053534 49 0 0.0 0.0 0.00 0.00 0.00 93 1012.8
20260502053044 49 0 0.0 0.0 0.00 0.00 0.00 92 1013.0
20260502052530 49 0 0.0 0.0 0.00 0.00 0.00 92 1013.0
20260502052032 49 0 0.0 0.0 0.00 0.00 0.00 92 1013.0
20260502051612 49 0 0.0 0.0 0.00 0.00 0.00 92 1013.0
20260502051031 49 0 0.0 0.0 0.00 0.00 0.00 92 1013.0
20260502050533 49 0 0.0 0.0 0.00 0.00 0.00 91 1013.1
20260502050050 50 0 0.0 0.0 0.00 0.00 0.00 91 1013.1
20260502045529 50 0 0.0 0.0 0.00 0.00 0.00 91 1013.2
20260502045031 50 0 0.0 0.0 0.00 0.00 0.00 90 1013.2
20260502044546 50 0 0.0 0.0 0.00 0.00 0.00 90 1013.2
20260502044028 50 0 0.0 0.0 0.00 0.00 0.00 90 1013.3
20260502043533 50 0 0.0 0.0 0.00 0.00 0.00 90 1013.5
20260502043048 50 0 0.0 0.0 0.00 0.00 0.00 90 1013.4
20260502042532 50 0 0.0 0.0 0.00 0.00 0.00 89 1013.4
20260502042032 50 0 0.0 0.0 0.00 0.00 0.00 89 1013.4
20260502041551 50 0 0.0 0.0 0.00 0.00 0.00 89 1013.4
20260502041031 51 0 0.0 0.0 0.00 0.00 0.00 89 1013.4
20260502040534 51 0 0.0 0.0 0.00 0.00 0.00 89 1013.4
20260502040054 51 0 0.0 0.0 0.00 0.00 0.00 89 1013.4
20260502035528 51 0 0.0 0.0 0.00 0.00 0.00 89 1013.4
20260502035033 51 0 0.0 0.0 0.00 0.00 0.00 88 1013.5
20260502034548 51 0 0.0 0.0 0.00 0.00 0.00 88 1013.6
20260502034032 51 0 0.0 0.0 0.00 0.00 0.00 87 1013.6
20260502033531 52 0 0.0 0.0 0.00 0.00 0.00 87 1013.6
20260502033045 52 0 0.0 0.0 0.00 0.00 0.00 87 1013.6
20260502032532 52 0 0.0 0.0 0.00 0.00 0.00 86 1013.5
20260502032029 52 0 0.0 0.0 0.00 0.00 0.00 86 1013.6
20260502031542 52 0 0.0 0.0 0.00 0.00 0.00 86 1013.5
20260502031033 52 0 0.0 0.0 0.00 0.00 0.00 85 1013.4
20260502030533 52 0 0.0 0.0 0.00 0.00 0.00 85 1013.5
20260502030050 52 0 0.0 0.0 0.00 0.00 0.00 85 1013.5
20260502025529 53 0 0.0 0.0 0.00 0.00 0.00 84 1013.4
20260502025033 53 0 0.0 0.9 0.00 0.00 0.00 84 1013.2
20260502024543 53 0 0.0 0.9 0.00 0.00 0.00 84 1013.2
20260502024032 53 0 0.0 0.9 0.00 0.00 0.00 83 1013.2
20260502023532 53 0 0.0 0.0 0.00 0.00 0.00 83 1013.2
20260502023055 53 0 0.0 0.9 0.00 0.00 0.00 83 1013.1
20260502022531 53 0 0.0 0.9 0.00 0.00 0.00 83 1013.2
20260502022036 53 0 0.0 0.9 0.00 0.00 0.00 82 1013.4
20260502021546 53 0 0.0 0.0 0.00 0.00 0.00 82 1013.4
20260502021035 54 0 0.0 0.0 0.00 0.00 0.00 81 1013.4
20260502020532 54 0 0.0 0.0 0.00 0.00 0.00 81 1013.4
20260502015532 54 0 0.0 0.0 0.00 0.00 0.00 80 1013.6
20260502015031 54 0 0.0 0.0 0.00 0.00 0.00 79 1013.5
20260502014551 54 0 0.0 0.9 0.00 0.00 0.00 79 1013.6
20260502014032 54 0 0.0 0.9 0.00 0.00 0.00 78 1013.5
20260502013531 55 236 0.0 0.0 0.00 0.00 0.00 78 1013.4
20260502013058 55 0 0.0 0.9 0.00 0.00 0.00 77 1013.2
20260502012531 55 0 0.0 0.9 0.00 0.00 0.00 77 1013.3
20260502012034 55 0 0.0 1.7 0.00 0.00 0.00 76 1013.2
20260502011547 56 0 0.0 1.7 0.00 0.00 0.00 75 1013.2
20260502011033 56 0 0.0 0.9 0.00 0.00 0.00 74 1013.1
20260502010532 56 0 0.0 0.9 0.00 0.00 0.00 74 1013.0
20260502010047 56 0 0.0 3.5 0.00 0.00 0.00 74 1012.9
20260502005532 56 0 0.0 3.5 0.00 0.00 0.00 74 1012.9
20260502005033 57 199 0.0 3.5 0.00 0.00 0.00 73 1012.8
20260502004605 57 0 0.0 1.7 0.00 0.00 0.00 73 1012.4
20260502004029 57 0 0.0 1.7 0.00 0.00 0.00 72 1012.3
20260502003531 57 0 0.0 1.7 0.00 0.00 0.00 72 1012.2
20260502003045 58 0 0.0 1.7 0.00 0.00 0.00 71 1012.3
20260502002529 58 0 0.0 2.6 0.00 0.00 0.00 72 1012.4
20260502002032 58 0 0.0 2.6 0.00 0.00 0.00 71 1012.3
20260502001604 59 297 0.0 6.1 0.00 0.00 0.00 70 1012.1
20260502001031 59 0 0.9 6.1 0.00 0.00 0.00 69 1012.2
20260502000531 59 263 0.0 4.3 0.00 0.00 0.00 68 1012.2
20260502000051 60 244 0.0 4.3 0.00 0.00 0.00 67 1012.2
20260501235533 60 0 0.0 2.6 0.00 0.00 0.00 66 1012.2
20260501235032 60 0 0.0 0.9 0.00 0.00 0.00 66 1012.1
20260501234550 60 0 0.0 1.7 0.00 0.00 0.00 64 1012.1
20260501234032 61 0 0.0 1.7 0.00 0.00 0.00 64 1012.0
20260501233532 61 0 0.0 4.3 0.00 0.00 0.00 63 1012.1
20260501233054 61 0 0.0 4.3 0.00 0.00 0.00 62 1012.1
20260501232530 62 0 0.0 3.5 0.00 0.00 0.00 62 1012.0
20260501232033 62 231 0.0 3.5 0.00 0.00 0.00 60 1011.9
20260501231548 62 0 0.0 3.5 0.00 0.00 0.00 59 1011.9
20260501231032 62 0 0.0 1.7 0.00 0.00 0.00 59 1011.8
20260501230534 63 193 0.0 1.7 0.00 0.00 0.00 59 1011.8
20260501230041 63 194 0.0 2.6 0.00 0.00 0.00 59 1011.8
20260501225530 63 0 0.0 3.5 0.00 0.00 0.00 59 1011.8
20260501225034 63 201 0.9 3.5 0.00 0.00 0.00 57 1011.9
20260501224543 63 0 0.0 2.6 0.00 0.00 0.00 60 1011.9
20260501224033 63 319 0.0 1.7 0.00 0.00 0.00 57 1012.0
20260501223536 64 205 0.0 1.7 0.00 0.00 0.00 57 1011.9
20260501223042 64 205 0.0 1.7 0.00 0.00 0.00 56 1012.0
20260501222533 64 0 0.0 6.1 0.00 0.00 0.00 56 1012.0
20260501222033 64 147 0.9 6.1 0.00 0.00 0.00 55 1012.0
20260501221545 64 164 0.9 3.5 0.00 0.00 0.00 55 1012.1
20260501221034 65 0 0.0 2.6 0.00 0.00 0.00 54 1012.1
20260501220533 65 196 0.0 2.6 0.00 0.00 0.00 54 1012.1
20260501220117 65 190 0.0 1.7 0.00 0.00 0.00 54 1012.3
20260501215535 65 0 0.0 4.3 0.00 0.00 0.00 55 1012.1
20260501215037 65 0 0.0 4.3 0.00 0.00 0.00 51 1012.1
20260501214545 65 308 0.9 3.5 0.00 0.00 0.00 52 1012.2
20260501214033 65 223 0.0 7.0 0.00 0.00 0.00 53 1012.3
20260501213534 65 242 1.7 7.0 0.00 0.00 0.00 50 1012.3
20260501213039 66 0 0.0 6.1 0.00 0.00 0.00 50 1012.2
20260501212534 66 252 0.0 6.1 0.00 0.00 0.00 53 1012.3
20260501212033 66 0 0.9 7.0 0.00 0.00 0.00 50 1012.3
20260501211548 66 242 0.9 7.0 0.00 0.00 0.00 51 1012.3
20260501211033 66 200 0.0 4.3 0.00 0.00 0.00 50 1012.3
20260501210533 66 220 0.9 4.3 0.00 0.00 0.00 49 1012.3
20260501205533 67 215 0.0 5.2 0.00 0.00 0.00 49 1012.4
20260501205035 67 0 0.0 5.2 0.00 0.00 0.00 47 1012.4
20260501204546 67 192 0.9 5.2 0.00 0.00 0.00 44 1012.4
20260501204033 67 211 0.9 4.3 0.00 0.00 0.00 44 1012.5
20260501203532 68 0 0.9 4.3 0.00 0.00 0.00 47 1012.4
20260501203044 68 190 0.9 6.1 0.00 0.00 0.00 46 1012.6
20260501202532 68 0 0.9 6.1 0.00 0.00 0.00 44 1012.4
20260501202034 68 191 0.0 6.1 0.00 0.00 0.00 48 1012.6
20260501201546 68 0 0.9 6.1 0.00 0.00 0.00 48 1012.7
20260501201032 68 164 0.0 3.5 0.00 0.00 0.00 45 1012.9
20260501200532 68 203 0.9 3.5 0.00 0.00 0.00 45 1013.0
20260501200041 68 234 0.0 3.5 0.00 0.00 0.00 47 1013.0
20260501195533 68 0 0.0 4.3 0.00 0.00 0.00 45 1013.2